QPF
0.05 0.05 0.06 0.05 0.04 0.04 0.05 0.07 0.07 0.06 0.06 0.06 0.06 0.05 0.06 0.08 0.09 0.09 0.10 0.13 0.12 0.09 0.06 0.05 0.05 0.05 0.07 0.09 0.11 0.10 0.09 0.09 0.09 0.08 0.05 0.04 0.04 0.04
0.05 0.05 0.05 0.04 0.04 0.04 0.04 0.05 0.07 0.07 0.10 0.09 0.05 0.03 0.03 0.04 0.05 0.06 0.08 0.10 0.12 0.10 0.08 0.07 0.06 0.05 0.06 0.07 0.10 0.11 0.12 0.10 0.08 0.08 0.07 0.05 0.04 0.03
0.04 0.04 0.04 0.04 0.05 0.05 0.06 0.05 0.05 0.05 0.08 0.08 0.05 0.03 0.03 0.03 0.03 0.04 0.06 0.08 0.09 0.09 0.10 0.08 0.07 0.06 0.06 0.06 0.07 0.07 0.10 0.11 0.11 0.08 0.07 0.06 0.05 0.04
0.03 0.03 0.02 0.02 0.02 0.03 0.05 0.05 0.05 0.04 0.05 0.04 0.03 0.03 0.02 0.03 0.03 0.03 0.04 0.05 0.06 0.07 0.09 0.10 0.08 0.06 0.06 0.06 0.05 0.05 0.06 0.08 0.09 0.09 0.08 0.07 0.07 0.05
0.03 0.03 0.03 0.03 0.02 0.02 0.02 0.03 0.05 0.04 0.03 0.02 0.03 0.03 0.02 0.03 0.03 0.03 0.03 0.03 0.03 0.04 0.06 0.08 0.08 0.07 0.06 0.05 0.05 0.05 0.04 0.04 0.05 0.08 0.09 0.07 0.06 0.05
0.03 0.03 0.03 0.02 0.03 0.03 0.02 0.03 0.03 0.03 0.03 0.03 0.03 0.03 0.02 0.03 0.04 0.04 0.02 0.02 0.02 0.02 0.04 0.04 0.05 0.06 0.08 0.07 0.05 0.05 0.04 0.03 0.03 0.04 0.05 0.07 0.08 0.07
0.01 0.02 0.02 0.02 0.02 0.02 0.02 0.02 0.02 0.02 0.03 0.04 0.03 0.02 0.02 0.03 0.03 0.03 0.03 0.02 0.01 0.02 0.03 0.03 0.03 0.03 0.04 0.05 0.05 0.04 0.04 0.03 0.03 0.03 0.03 0.04 0.05 0.07
0.01 0.01 0.01 0.01 0.01 0.02 0.01 0.01 0.01 0.01 0.02 0.02 0.02 0.01 0.01 0.01 0.01 0.02 0.02 0.02 0.02 0.02 0.02 0.02 0.02 0.02 0.02 0.02 0.03 0.03 0.03 0.02 0.02 0.02 0.02 0.02 0.03 0.04
0.01 0.01 0.01 0.01 0.02 0.02 0.02 0.01 0.01 0.01 0.01 0.01 0.01 0.00 0.01 0.01 0.01 0.01 0.01 0.01 0.01 0.01 0.02 0.02 0.01 0.01 0.02 0.02 0.02 0.02 0.02 0.02 0.02 0.02 0.02 0.01 0.02 0.02
0.02 0.02 0.01 0.01 0.02 0.03 0.04 0.02 0.01 0.01 0.01 0.01 0.01 0.01 0.01 0.01 0.01 0.01 0.01 0.01 0.01 0.01 0.01 0.02 0.02 0.01 0.01 0.02 0.02 0.02 0.01 0.01 0.01 0.02 0.02 0.02 0.01 0.02
0.01 0.02 0.02 0.01 0.01 0.02 0.03 0.02 0.01 0.01 0.01 0.01 0.01 0.01 0.01 0.01 0.02 0.02 0.02 0.02 0.02 0.02 0.02 0.03 0.03 0.02 0.02 0.01 0.01 0.02 0.02 0.01 0.01 0.01 0.01 0.01 0.02 0.02
0.01 0.01 0.02 0.02 0.02 0.03 0.02 0.02 0.02 0.01 0.01 0.00 0.00 0.00 0.01 0.01 0.03 0.04 0.04 0.03 0.03 0.02 0.03 0.05 0.03 0.03 0.03 0.02 0.01 0.01 0.01 0.01 0.01 0.01 0.01 0.02 0.02 0.03
0.00 0.01 0.02 0.03 0.02 0.03 0.03 0.03 0.02 0.01 0.01 0.01 0.01 0.01 0.01 0.02 0.02 0.03 0.03 0.04 0.03 0.03 0.03 0.04 0.03 0.03 0.03 0.02 0.02 0.01 0.01 0.01 0.01 0.01 0.02 0.02 0.02 0.02
0.01 0.01 0.01 0.02 0.02 0.03 0.03 0.02 0.02 0.02 0.01 0.02 0.01 0.01 0.02 0.02 0.02 0.02 0.02 0.03 0.03 0.04 0.06 0.06 0.04 0.03 0.03 0.02 0.01 0.02 0.01 0.01 0.01 0.01 0.01 0.02 0.02 0.02
0.01 0.01 0.01 0.02 0.02 0.02 0.02 0.02 0.02 0.01 0.01 0.01 0.01 0.01 0.01 0.01 0.02 0.02 0.02 0.02 0.03 0.03 0.05 0.06 0.05 0.04 0.03 0.02 0.01 0.01 0.02 0.01 0.01 0.01 0.01 0.02 0.02 0.02
0.00 0.00 0.01 0.02 0.02 0.02 0.02 0.02 0.02 0.02 0.02 0.02 0.02 0.01 0.01 0.01 0.01 0.02 0.02 0.02 0.01 0.02 0.03 0.05 0.06 0.05 0.03 0.03 0.03 0.02 0.02 0.02 0.02 0.03 0.03 0.02 0.02 0.02
0.00 0.00 0.00 0.01 0.02 0.03 0.02 0.01 0.02 0.02 0.02 0.03 0.03 0.03 0.01 0.01 0.01 0.01 0.01 0.01 0.01 0.01 0.02 0.03 0.04 0.04 0.04 0.04 0.05 0.03 0.02 0.03 0.03 0.04 0.05 0.05 0.03 0.03
0.00 0.00 0.00 0.00 0.01 0.02 0.03 0.01 0.01 0.02 0.02 0.02 0.03 0.03 0.02 0.01 0.01 0.01 0.01 0.01 0.01 0.02 0.04 0.06 0.05 0.03 0.04 0.05 0.06 0.04 0.03 0.03 0.03 0.04 0.05 0.07 0.06 0.05
0.00 0.00 0.01 0.01 0.01 0.01 0.01 0.01 0.01 0.01 0.01 0.02 0.02 0.03 0.03 0.03 0.02 0.02 0.02 0.02 0.02 0.03 0.04 0.08 0.07 0.04 0.04 0.04 0.06 0.04 0.03 0.03 0.04 0.05 0.06 0.07 0.08 0.07
0.00 0.00 0.01 0.01 0.01 0.01 0.01 0.01 0.02 0.02 0.01 0.01 0.02 0.03 0.03 0.03 0.03 0.03 0.03 0.02 0.02 0.03 0.04 0.07 0.06 0.04 0.04 0.05 0.04 0.04 0.03 0.03 0.04 0.05 0.06 0.06 0.09 0.10
0.00 0.00 0.00 0.01 0.01 0.01 0.01 0.01 0.03 0.03 0.02 0.02 0.02 0.02 0.02 0.02 0.03 0.03 0.03 0.04 0.04 0.03 0.05 0.06 0.05 0.05 0.04 0.04 0.03 0.03 0.04 0.04 0.04 0.05 0.05 0.06 0.07 0.09
0.01 0.00 0.00 0.00 0.01 0.01 0.01 0.02 0.03 0.02 0.02 0.02 0.01 0.01 0.01 0.02 0.02 0.03 0.03 0.04 0.04 0.05 0.05 0.05 0.05 0.05 0.05 0.05 0.04 0.04 0.04 0.04 0.05 0.07 0.07 0.07 0.06 0.07
0.01 0.00 0.00 0.00 0.00 0.00 0.01 0.01 0.02 0.02 0.02 0.02 0.02 0.02 0.01 0.01 0.01 0.02 0.02 0.03 0.03 0.03 0.05 0.05 0.05 0.06 0.06 0.06 0.05 0.04 0.04 0.04 0.04 0.06 0.06 0.07 0.06 0.05
MSLP
1011.06 1011.89 1012.68 1013.39 1013.99 1014.44 1014.76 1014.94 1015.01 1015.01 1014.98 1014.94 1014.91 1014.92 1014.98 1015.07 1015.21 1015.37 1015.57 1015.79 1016.04 1016.30 1016.58 1016.87 1017.15 1017.41 1017.65 1017.85 1018.02 1018.17 1018.30 1018.42 1018.55 1018.69 1018.84 1018.99 1019.14 1019.27
1010.63 1011.45 1012.23 1012.92 1013.50 1013.96 1014.28 1014.50 1014.62 1014.68 1014.70 1014.71 1014.72 1014.76 1014.82 1014.90 1015.00 1015.12 1015.27 1015.45 1015.66 1015.89 1016.15 1016.42 1016.69 1016.96 1017.20 1017.41 1017.60 1017.76 1017.90 1018.04 1018.18 1018.34 1018.50 1018.66 1018.81 1018.93
1010.31 1011.09 1011.82 1012.48 1013.04 1013.50 1013.84 1014.09 1014.27 1014.40 1014.49 1014.57 1014.64 1014.72 1014.79 1014.87 1014.95 1015.04 1015.14 1015.27 1015.42 1015.61 1015.82 1016.05 1016.29 1016.53 1016.75 1016.95 1017.12 1017.28 1017.42 1017.57 1017.72 1017.89 1018.06 1018.24 1018.39 1018.52
1010.08 1010.79 1011.47 1012.08 1012.61 1013.06 1013.42 1013.72 1013.96 1014.16 1014.33 1014.49 1014.63 1014.75 1014.86 1014.94 1015.01 1015.08 1015.14 1015.22 1015.32 1015.44 1015.60 1015.77 1015.95 1016.13 1016.30 1016.45 1016.59 1016.71 1016.84 1016.98 1017.14 1017.32 1017.51 1017.70 1017.88 1018.02
1009.90 1010.54 1011.15 1011.70 1012.20 1012.63 1013.01 1013.34 1013.64 1013.91 1014.16 1014.39 1014.60 1014.78 1014.93 1015.04 1015.12 1015.17 1015.21 1015.25 1015.30 1015.36 1015.44 1015.54 1015.64 1015.73 1015.82 1015.90 1015.97 1016.05 1016.15 1016.27 1016.43 1016.61 1016.83 1017.05 1017.26 1017.44
1009.75 1010.30 1010.83 1011.32 1011.78 1012.20 1012.58 1012.94 1013.28 1013.61 1013.92 1014.22 1014.50 1014.73 1014.92 1015.07 1015.17 1015.24 1015.27 1015.28 1015.29 1015.30 1015.31 1015.32 1015.33 1015.33 1015.32 1015.31 1015.30 1015.31 1015.36 1015.46 1015.61 1015.81 1016.04 1016.30 1016.56 1016.78
1009.60 1010.06 1010.51 1010.94 1011.35 1011.74 1012.12 1012.49 1012.86 1013.22 1013.58 1013.93 1014.25 1014.53 1014.77 1014.96 1015.09 1015.18 1015.23 1015.24 1015.23 1015.20 1015.15 1015.09 1015.01 1014.91 1014.80 1014.69 1014.59 1014.53 1014.53 1014.60 1014.73 1014.94 1015.20 1015.50 1015.79 1016.07
1009.44 1009.81 1010.19 1010.56 1010.92 1011.28 1011.64 1012.00 1012.38 1012.75 1013.13 1013.50 1013.85 1014.16 1014.44 1014.66 1014.83 1014.96 1015.03 1015.06 1015.06 1015.01 1014.93 1014.81 1014.65 1014.47 1014.28 1014.08 1013.91 1013.78 1013.73 1013.76 1013.88 1014.09 1014.37 1014.69 1015.02 1015.33
1009.25 1009.55 1009.86 1010.18 1010.50 1010.83 1011.16 1011.50 1011.85 1012.22 1012.59 1012.95 1013.30 1013.63 1013.92 1014.18 1014.39 1014.56 1014.67 1014.74 1014.75 1014.71 1014.62 1014.47 1014.28 1014.04 1013.78 1013.52 1013.29 1013.11 1013.01 1013.01 1013.11 1013.31 1013.59 1013.92 1014.27 1014.60
1009.04 1009.29 1009.56 1009.84 1010.12 1010.41 1010.71 1011.02 1011.34 1011.67 1012.00 1012.34 1012.68 1013.00 1013.29 1013.56 1013.80 1014.00 1014.16 1014.27 1014.32 1014.30 1014.23 1014.08 1013.88 1013.62 1013.34 1013.04 1012.77 1012.56 1012.43 1012.40 1012.48 1012.67 1012.93 1013.25 1013.59 1013.92
1008.82 1009.05 1009.29 1009.54 1009.80 1010.06 1010.32 1010.60 1010.87 1011.16 1011.45 1011.74 1012.04 1012.33 1012.61 1012.88 1013.13 1013.35 1013.54 1013.68 1013.77 1013.80 1013.76 1013.64 1013.46 1013.22 1012.94 1012.64 1012.37 1012.15 1012.00 1011.96 1012.01 1012.16 1012.40 1012.69 1012.99 1013.29
1008.59 1008.82 1009.05 1009.29 1009.54 1009.78 1010.02 1010.25 1010.49 1010.72 1010.96 1011.20 1011.44 1011.69 1011.94 1012.18 1012.42 1012.65 1012.85 1013.02 1013.15 1013.21 1013.21 1013.14 1013.00 1012.80 1012.55 1012.29 1012.04 1011.84 1011.69 1011.64 1011.67 1011.79 1011.98 1012.21 1012.47 1012.72
1008.36 1008.59 1008.84 1009.08 1009.32 1009.55 1009.77 1009.97 1010.17 1010.36 1010.54 1010.73 1010.92 1011.11 1011.31 1011.52 1011.73 1011.94 1012.13 1012.31 1012.44 1012.54 1012.57 1012.55 1012.46 1012.32 1012.14 1011.93 1011.73 1011.56 1011.43 1011.38 1011.39 1011.48 1011.62 1011.80 1012.00 1012.18
1008.08 1008.35 1008.61 1008.86 1009.11 1009.33 1009.53 1009.71 1009.88 1010.03 1010.17 1010.31 1010.44 1010.59 1010.73 1010.89 1011.05 1011.22 1011.38 1011.54 1011.67 1011.77 1011.83 1011.85 1011.82 1011.74 1011.62 1011.49 1011.35 1011.23 1011.14 1011.09 1011.10 1011.16 1011.26 1011.39 1011.52 1011.65
1007.75 1008.04 1008.32 1008.58 1008.83 1009.04 1009.24 1009.40 1009.55 1009.68 1009.79 1009.88 1009.98 1010.07 1010.17 1010.27 1010.37 1010.48 1010.59 1010.71 1010.81 1010.90 1010.97 1011.02 1011.03 1011.01 1010.96 1010.90 1010.84 1010.77 1010.73 1010.71 1010.73 1010.77 1010.84 1010.92 1011.01 1011.09
1007.32 1007.62 1007.91 1008.18 1008.42 1008.64 1008.82 1008.98 1009.11 1009.22 1009.31 1009.39 1009.45 1009.51 1009.56 1009.60 1009.64 1009.69 1009.75 1009.80 1009.86 1009.93 1009.99 1010.04 1010.08 1010.11 1010.13 1010.14 1010.14 1010.15 1010.15 1010.17 1010.20 1010.25 1010.30 1010.36 1010.41 1010.46
1006.75 1007.05 1007.34 1007.60 1007.83 1008.04 1008.21 1008.36 1008.49 1008.60 1008.68 1008.75 1008.80 1008.83 1008.84 1008.84 1008.84 1008.83 1008.82 1008.82 1008.83 1008.85 1008.89 1008.94 1009.00 1009.07 1009.14 1009.21 1009.27 1009.34 1009.40 1009.45 1009.51 1009.56 1009.62 1009.67 1009.71 1009.74
1006.01 1006.31 1006.58 1006.82 1007.03 1007.22 1007.38 1007.52 1007.65 1007.76 1007.85 1007.92 1007.96 1007.98 1007.98 1007.96 1007.91 1007.86 1007.80 1007.75 1007.71 1007.70 1007.71 1007.76 1007.83 1007.92 1008.02 1008.14 1008.26 1008.38 1008.48 1008.58 1008.67 1008.74 1008.80 1008.86 1008.90 1008.93
1005.11 1005.38 1005.63 1005.84 1006.02 1006.19 1006.33 1006.46 1006.58 1006.69 1006.79 1006.87 1006.92 1006.95 1006.95 1006.92 1006.86 1006.78 1006.70 1006.62 1006.55 1006.52 1006.52 1006.55 1006.63 1006.74 1006.87 1007.03 1007.19 1007.35 1007.49 1007.62 1007.74 1007.83 1007.91 1007.97 1008.02 1008.06
1004.06 1004.30 1004.51 1004.68 1004.84 1004.97 1005.09 1005.21 1005.32 1005.43 1005.53 1005.62 1005.69 1005.74 1005.75 1005.73 1005.68 1005.61 1005.53 1005.45 1005.38 1005.34 1005.34 1005.39 1005.47 1005.60 1005.76 1005.95 1006.14 1006.33 1006.51 1006.66 1006.80 1006.91 1006.99 1007.06 1007.12 1007.17
1002.91 1003.10 1003.27 1003.41 1003.52 1003.63 1003.72 1003.81 1003.91 1004.01 1004.11 1004.21 1004.30 1004.37 1004.41 1004.42 1004.40 1004.37 1004.32 1004.27 1004.23 1004.22 1004.24 1004.31 1004.43 1004.58 1004.77 1004.98 1005.20 1005.41 1005.61 1005.79 1005.94 1006.06 1006.15 1006.22 1006.28 1006.33
1001.70 1001.84 1001.97 1002.07 1002.15 1002.21 1002.27 1002.34 1002.42 1002.50 1002.60 1002.70 1002.80 1002.90 1002.97 1003.03 1003.06 1003.08 1003.09 1003.10 1003.12 1003.17 1003.25 1003.37 1003.52 1003.72 1003.94 1004.18 1004.42 1004.66 1004.88 1005.07 1005.23 1005.36 1005.46 1005.53 1005.59 1005.63
1000.48 1000.58 1000.66 1000.72 1000.76 1000.80 1000.83 1000.87 1000.92 1000.98 1001.07 1001.17 1001.28 1001.40 1001.52 1001.62 1001.72 1001.81 1001.90 1002.00 1002.10 1002.23 1002.39 1002.58 1002.80 1003.04 1003.31 1003.59 1003.86 1004.12 1004.36 1004.56 1004.74 1004.87 1004.97 1005.05 1005.10 1005.14
Thickness
5661 5660 5658 5657 5656 5655 5654 5651 5647 5643 5644 5647 5649 5652 5653 5654 5654 5655 5655 5655 5655 5656 5657 5660 5661 5663 5663 5664 5664 5665 5666 5666 5666 5666 5667 5667 5666 5666
5656 5655 5654 5653 5652 5651 5650 5648 5645 5642 5639 5641 5642 5645 5647 5648 5649 5649 5649 5649 5649 5649 5651 5652 5654 5655 5656 5657 5658 5659 5660 5660 5661 5661 5662 5662 5662 5662
5652 5650 5649 5649 5647 5646 5645 5643 5641 5638 5635 5636 5637 5639 5640 5640 5641 5641 5641 5641 5641 5642 5644 5645 5647 5648 5649 5649 5651 5653 5654 5654 5655 5655 5656 5656 5657 5657
5648 5646 5645 5645 5643 5641 5640 5638 5636 5634 5631 5629 5630 5631 5632 5633 5633 5633 5633 5633 5633 5634 5636 5638 5639 5640 5641 5642 5644 5645 5646 5647 5648 5649 5650 5651 5651 5651
5644 5642 5641 5640 5638 5637 5635 5633 5631 5630 5627 5624 5623 5623 5624 5625 5625 5625 5624 5624 5625 5626 5627 5629 5631 5632 5633 5634 5635 5637 5638 5640 5641 5642 5642 5643 5645 5646
5640 5639 5638 5636 5634 5633 5631 5629 5627 5624 5621 5618 5617 5616 5615 5616 5616 5614 5614 5614 5615 5617 5618 5620 5621 5623 5624 5625 5627 5629 5630 5631 5632 5634 5635 5636 5638 5639
5635 5635 5634 5633 5632 5629 5627 5624 5621 5618 5614 5611 5609 5608 5607 5606 5605 5605 5605 5604 5606 5607 5609 5610 5612 5613 5614 5616 5618 5620 5622 5623 5625 5626 5627 5628 5629 5631
5630 5629 5629 5628 5626 5625 5622 5620 5617 5613 5609 5606 5603 5601 5600 5599 5598 5597 5596 5595 5595 5598 5598 5600 5602 5603 5605 5607 5609 5611 5613 5615 5616 5617 5618 5620 5621 5623
5625 5624 5623 5622 5620 5617 5615 5614 5611 5609 5607 5602 5599 5597 5595 5593 5591 5589 5587 5586 5586 5588 5588 5591 5593 5594 5597 5599 5601 5603 5604 5606 5608 5609 5610 5612 5613 5615
5621 5619 5616 5614 5613 5611 5608 5606 5604 5602 5600 5598 5596 5594 5592 5589 5586 5584 5582 5580 5580 5581 5580 5580 5584 5586 5590 5591 5593 5595 5596 5598 5599 5601 5602 5603 5605 5606
5615 5614 5611 5609 5607 5605 5602 5598 5597 5596 5595 5593 5591 5589 5587 5585 5582 5577 5574 5571 5570 5572 5573 5572 5575 5576 5580 5583 5586 5587 5589 5590 5592 5593 5595 5596 5597 5598
5609 5608 5606 5604 5601 5598 5594 5591 5589 5589 5588 5587 5584 5583 5581 5579 5577 5573 5570 5566 5564 5564 5567 5565 5566 5566 5568 5574 5577 5580 5581 5583 5584 5585 5587 5588 5589 5589
5604 5601 5600 5598 5595 5592 5589 5586 5584 5583 5581 5579 5577 5576 5575 5573 5571 5568 5565 5562 5560 5559 5561 5559 5558 5558 5558 5562 5567 5571 5572 5574 5575 5577 5579 5580 5581 5582
5599 5596 5594 5592 5589 5586 5583 5582 5580 5577 5574 5571 5569 5568 5567 5566 5565 5563 5562 5560 5558 5557 5557 5555 5553 5552 5552 5554 5557 5561 5564 5566 5568 5569 5571 5572 5573 5574
5594 5592 5589 5586 5583 5581 5578 5576 5573 5570 5568 5565 5563 5562 5562 5561 5560 5558 5557 5556 5555 5554 5553 5552 5550 5549 5549 5549 5551 5553 5556 5559 5561 5563 5564 5565 5566 5567
5589 5586 5584 5581 5578 5575 5572 5569 5567 5564 5562 5560 5558 5557 5556 5555 5553 5552 5550 5549 5548 5549 5550 5549 5548 5547 5546 5547 5547 5548 5550 5552 5555 5557 5558 5559 5561 5562
5583 5580 5577 5574 5570 5568 5565 5563 5561 5559 5556 5554 5552 5551 5549 5548 5547 5546 5544 5543 5540 5541 5542 5544 5544 5543 5543 5543 5543 5545 5546 5548 5550 5551 5551 5553 5555 5557
5579 5575 5572 5568 5565 5563 5560 5558 5556 5554 5552 5550 5548 5546 5544 5542 5542 5541 5539 5537 5536 5536 5536 5537 5536 5536 5536 5538 5540 5541 5541 5542 5544 5545 5546 5547 5550 5552
5576 5573 5569 5565 5562 5560 5557 5555 5553 5551 5548 5546 5544 5542 5540 5539 5537 5536 5535 5533 5532 5532 5532 5532 5531 5530 5529 5531 5534 5536 5536 5537 5538 5539 5540 5542 5545 5548
5574 5571 5567 5564 5561 5558 5555 5552 5550 5548 5545 5543 5541 5539 5537 5535 5534 5532 5530 5529 5528 5528 5527 5528 5527 5527 5526 5527 5527 5529 5531 5531 5532 5532 5534 5536 5538 5541
5572 5569 5565 5562 5559 5556 5553 5550 5547 5545 5542 5540 5538 5536 5534 5532 5531 5529 5527 5526 5525 5524 5523 5524 5525 5525 5524 5522 5521 5523 5525 5526 5527 5527 5528 5529 5530 5532
5570 5566 5563 5560 5557 5554 5550 5548 5545 5542 5539 5537 5535 5533 5531 5529 5528 5526 5524 5522 5521 5521 5521 5521 5521 5520 5519 5517 5517 5517 5518 5520 5521 5522 5523 5525 5526 5527
5567 5564 5561 5557 5554 5551 5547 5544 5542 5539 5537 5534 5532 5530 5528 5526 5524 5522 5521 5519 5518 5518 5517 5517 5517 5516 5514 5513 5512 5512 5513 5513 5514 5515 5517 5520 5522 5525